Land O' Lakes, WI

4:02 AM CDT on July 21, 2017 (GMT -0500)
Kings Land O'Lakes

Weather History for KLNL - May, 2013

Change the Weather History Date:

Friday, May 24, 2013

  Actual Average (KEGV) Record (KEGV)
Temperature  
Mean Temperature 44 °F -  
Max Temperature 63 °F 65 °F 81 °F (1991)
Min Temperature 25 °F 46 °F 27 °F (2013)
Degree Days  
Heating Degree Days 21    
Moisture  
Dew Point 28 °F    
Average Humidity 58    
Maximum Humidity 98    
Minimum Humidity 24    
Precipitation  
Precipitation 0.00 in - - ()
Sea Level Pressure  
Sea Level Pressure 30.37 in    
Wind  
Wind Speed 2 mph (ESE)    
Max Wind Speed 8 mph    
Max Gust Speed -    
Visibility 10 miles    
Events      
Averages and records for this station are not official NWS values.
T = Trace of Precipitation, MM = Missing Value Source: NWS Daily Summary

Daily Weather History Graph

Daily Weather History Graph

Search for Another Location

Airport or City:

Trip Planner

Search our weather history database for the weather conditions in past years. The results will help you decide how hot, cold, wet, or windy it might be!

Date:

Astronomy

May. 24, 2013 Rise Set
Actual Time 5:14 AM CDT 8:33 PM CDT
Civil Twilight 4:38 AM CDT 9:10 PM CDT
Nautical Twilight 3:50 AM CDT 9:58 PM CDT
Astronomical Twilight 2:50 AM CDT 10:58 PM CDT
Moon 8:13 PM CDT (5/24) 4:49 AM CDT (5/24)
Length of Visible Light 16h 31m
Length of Day
15h 18m
Full, 100% of the Moon is Illuminated
May 24
Full
May 24
Full
May 31
Last Quarter
Jun 8
New
Jun 16
First Quarter

Hourly Weather History & Observations

Time (CDT) Temp. Dew Point Humidity Pressure Visibility Wind Dir Wind Speed Gust Speed Precip Events Conditions
12:15 AM 29.7 °F 28.8 °F 96% 30.35 in 10.0 mi Calm Calm - N/A   Clear
12:35 AM 29.1 °F 28.2 °F 96% 30.35 in 10.0 mi Calm Calm - N/A   Clear
12:55 AM 29.3 °F 28.8 °F 98% 30.35 in 10.0 mi Calm Calm - N/A   Clear
1:15 AM 29.3 °F 28.4 °F 96% 30.35 in 10.0 mi Calm Calm - N/A   Clear
1:35 AM 28.9 °F 28.2 °F 97% 30.35 in 10.0 mi Calm Calm - N/A   Clear
1:55 AM 28.0 °F 27.3 °F 97% 30.35 in 10.0 mi Calm Calm - N/A   Clear
2:15 AM 28.0 °F 27.3 °F 97% 30.35 in 10.0 mi Calm Calm - N/A   Clear
2:35 AM 28.2 °F 27.3 °F 96% 30.37 in 10.0 mi Calm Calm - N/A   Clear
2:55 AM 27.0 °F 26.1 °F 96% 30.37 in 1.8 mi Calm Calm - N/A   Mist
3:15 AM 27.5 °F 26.8 °F 97% 30.37 in 7.0 mi Calm Calm - N/A   Clear
3:35 AM 26.8 °F 26.2 °F 98% 30.37 in 10.0 mi Calm Calm - N/A   Clear
3:55 AM 27.1 °F 26.2 °F 96% 30.37 in 10.0 mi Calm Calm - N/A   Clear
4:15 AM 27.1 °F 26.4 °F 97% 30.38 in 10.0 mi Calm Calm - N/A   Clear
4:35 AM 26.4 °F 25.5 °F 96% 30.39 in 10.0 mi Calm Calm - N/A   Clear
4:55 AM 26.6 °F 25.7 °F 96% 30.39 in 10.0 mi Calm Calm - N/A   Clear
5:15 AM 25.9 °F 25.0 °F 96% 30.40 in 10.0 mi Calm Calm - N/A   Clear
5:35 AM 25.7 °F 24.6 °F 96% 30.40 in 10.0 mi Calm Calm - N/A   Clear
5:55 AM 26.8 °F 25.7 °F 96% 30.41 in 10.0 mi Calm Calm - N/A   Clear
6:15 AM 29.1 °F 27.7 °F 94% 30.40 in 10.0 mi Calm Calm - N/A   Clear
6:35 AM 31.6 °F 30.7 °F 96% 30.40 in 10.0 mi Calm Calm - N/A   Clear
6:55 AM 34.0 °F 32.4 °F 94% 30.41 in 10.0 mi Calm Calm - N/A   Clear
7:15 AM 36.9 °F 32.5 °F 84% 30.41 in 10.0 mi Calm Calm - N/A   Clear
7:35 AM 39.7 °F 32.9 °F 77% 30.42 in 10.0 mi Calm Calm - N/A   Clear
7:55 AM 42.1 °F 31.5 °F 66% 30.43 in 10.0 mi Calm Calm - N/A   Clear
8:15 AM 43.7 °F 29.1 °F 57% 30.44 in 10.0 mi Calm Calm - N/A   Clear
8:35 AM 45.0 °F 29.8 °F 55% 30.44 in 10.0 mi Calm Calm - N/A   Clear
8:55 AM 46.4 °F 28.8 °F 50% 30.43 in 10.0 mi Calm Calm - N/A   Clear
9:15 AM 48.4 °F 28.2 °F 46% 30.43 in 10.0 mi SE 4.6 mph - N/A   Clear
9:35 AM 49.1 °F 26.8 °F 42% 30.43 in 10.0 mi Calm Calm - N/A   Clear
9:55 AM 50.2 °F 26.2 °F 39% 30.43 in 10.0 mi SE 4.6 mph - N/A   Clear
10:15 AM 50.9 °F 26.6 °F 39% 30.42 in 10.0 mi SE 6.9 mph - N/A   Clear
10:35 AM 52.2 °F 26.8 °F 37% 30.41 in 10.0 mi ESE 8.1 mph - N/A   Clear
10:55 AM 53.4 °F 27.3 °F 37% 30.41 in 10.0 mi ESE 8.1 mph - N/A   Clear
11:15 AM 54.1 °F 27.1 °F 35% 30.41 in 10.0 mi Calm Calm - N/A   Clear
11:35 AM 54.3 °F 26.8 °F 35% 30.41 in 10.0 mi Calm Calm - N/A   Clear
11:55 AM 56.3 °F 27.7 °F 33% 30.40 in 10.0 mi ESE 3.5 mph - N/A   Clear
12:15 PM 56.3 °F 28.2 °F 34% 30.39 in 10.0 mi NW 3.5 mph - N/A   Clear
12:35 PM 56.3 °F 27.0 °F 32% 30.38 in 10.0 mi South 3.5 mph - N/A   Clear
12:55 PM 58.5 °F 27.3 °F 30% 30.37 in 10.0 mi SE 5.8 mph - N/A   Clear
1:15 PM 58.8 °F 26.1 °F 29% 30.37 in 10.0 mi SSW 4.6 mph - N/A   Clear
1:35 PM 59.2 °F 26.2 °F 28% 30.36 in 10.0 mi NE 4.6 mph - N/A   Clear
1:55 PM 60.1 °F 26.1 °F 27% 30.35 in 10.0 mi South 8.1 mph - N/A   Clear
2:15 PM 61.2 °F 25.5 °F 26% 30.35 in 10.0 mi SSW 6.9 mph - N/A   Clear
2:35 PM 61.7 °F 25.2 °F 25% 30.34 in 10.0 mi South 3.5 mph - N/A   Clear
2:55 PM 62.1 °F 26.2 °F 26% 30.33 in 10.0 mi NNE 5.8 mph - N/A   Clear
3:15 PM 63.1 °F 25.9 °F 24% 30.33 in 10.0 mi East 5.8 mph - N/A   Clear
3:35 PM 63.7 °F 26.4 °F 24% 30.32 in 10.0 mi ESE 5.8 mph - N/A   Clear
3:55 PM 61.9 °F 26.2 °F 26% 30.32 in 10.0 mi SSW 5.8 mph - N/A   Clear
4:15 PM 61.7 °F 26.4 °F 26% 30.31 in 10.0 mi SSE 3.5 mph - N/A   Clear
4:35 PM 62.6 °F 26.8 °F 26% 30.30 in 10.0 mi ENE 4.6 mph - N/A   Clear
4:55 PM 63.7 °F 26.6 °F 25% 30.29 in 10.0 mi Calm Calm - N/A   Clear
5:15 PM 62.4 °F 26.2 °F 25% 30.29 in 10.0 mi South 3.5 mph - N/A   Clear
5:55 PM 62.2 °F 25.9 °F 25% 30.29 in 10.0 mi Calm Calm - N/A   Clear
6:15 PM 62.2 °F 26.4 °F 26% 30.29 in 10.0 mi Calm Calm - N/A   Clear
6:35 PM 62.2 °F 25.9 °F 25% 30.29 in 10.0 mi Calm Calm - N/A   Clear
7:35 PM 60.4 °F 29.1 °F 31% 30.30 in 10.0 mi SSE 3.5 mph - N/A   Clear
9:15 PM 52.7 °F 34.3 °F 50% 30.32 in 10.0 mi NE 5.8 mph - N/A   Clear
9:35 PM 52.0 °F 33.1 °F 49% 30.32 in 10.0 mi ENE 6.9 mph - N/A   Clear
9:55 PM 51.1 °F 33.1 °F 50% 30.32 in 10.0 mi East 5.8 mph - N/A   Clear
10:15 PM 50.9 °F 32.7 °F 50% 30.33 in 10.0 mi East 8.1 mph - N/A   Clear
10:35 PM 50.0 °F 32.4 °F 51% 30.33 in 10.0 mi East 8.1 mph - N/A   Clear
10:55 PM 49.1 °F 33.3 °F 54% 30.34 in 10.0 mi East 5.8 mph - N/A   Clear
11:15 PM 48.4 °F 33.8 °F 57% 30.34 in 10.0 mi East 5.8 mph - N/A   Clear
11:35 PM 47.5 °F 33.3 °F 58% 30.34 in 10.0 mi ESE 4.6 mph - N/A   Clear
11:55 PM 46.6 °F 34.2 °F 62% 30.33 in 10.0 mi ESE 5.8 mph - N/A   Clear